Flag Weather past 2 weeks in Lindlar, North Rhine-Westphalia, Germany

Now
39 °F

Overcast.


Feels Like: 34 °F
Forecast: 32 / 44 °F
Wind: 7 mph from Southeast

Location: Koeln / Bonn

Current Time: Nov 29, 2014 at 3:45:34 AM

Latest Report: Nov 29, 2014 at 3:00 AM


Visibility: 13 mi

Pressure: 29.95 "Hg

Humidity: 83%

Dew point: 34 °F

Location of LindlarLocation

Historic Weather in Lindlar — Graph

°F

Lindlar temperature yesterday

Maximum temperature yesterday: 47 °F (at 12:00 PM)
Minimum temperature yesterday: 38 °F (at 8:00 PM)
Average temperature yesterday: 42 °F

Past Weeks' High & Low Weather Summary

 TemperatureHumidityPressure
High56 °F (Nov 14, 1:00 PM)100% (Nov 20, 2:00 AM)30.37 "Hg (Nov 20, 2:00 AM)
Low26 °F (Nov 25, 7:00 AM)53% (Nov 25, 3:00 PM)29.54 "Hg (Nov 16, 5:00 PM)
Average45 °F85%29.97 "Hg
* Reported Nov 14 3:00 AM — Nov 29 3:00 AM, Lindlar, Weather by CustomWeather, © 2014

Note: Actual official high and low records may vary slightly from our data, if they occured in-between our weather recording intervals... More about our weather records

Advertising

Lindlar weather history for previous 24 hours

 ConditionsComfort  
Time TempWeatherWind HumidityBarometerVisibility
3:00 AM
Nov 29
39 °FOvercast.7 mph83%29.95 "Hg12 mi
2:00 AM39 °FOvercast.6 mph85%29.94 "Hg12 mi
1:00 AM39 °FOvercast.7 mph83%29.94 "Hg12 mi
12:00 AM39 °FOvercast.7 mph85%29.94 "Hg12 mi
11:00 PM
Nov 28
40 °FOvercast.6 mph83%29.93 "Hg12 mi
10:00 PM40 °FOvercast.6 mph85%29.92 "Hg12 mi
9:00 PM40 °FOvercast.3 mph86%29.92 "Hg12 mi
8:00 PM38 °FOvercast.6 mph89%29.90 "Hg11 mi
7:00 PM39 °FPassing clouds.3 mph89%29.88 "Hg11 mi
6:00 PM39 °FPassing clouds.3 mph88%29.87 "Hg11 mi
5:00 PM39 °FPassing clouds.6 mph88%29.87 "Hg11 mi
4:00 PM42 °FScattered clouds.7 mph83%29.85 "Hg12 mi
3:00 PM43 °FScattered clouds.8 mph81%29.84 "Hg12 mi
2:00 PM45 °FPartly sunny.7 mph78%29.82 "Hg12 mi
1:00 PM45 °FPartly sunny.8 mph78%29.83 "Hg9 mi
12:00 PM47 °FPartly sunny.6 mph74%29.83 "Hg9 mi
11:00 AM44 °FOvercast.6 mph81%29.84 "Hg9 mi
10:00 AM43 °FOvercast.5 mph82%29.84 "Hg8 mi
9:00 AM42 °FOvercast.7 mph83%29.83 "Hg7 mi
8:00 AM42 °FOvercast.7 mph83%29.81 "Hg7 mi
7:00 AM42 °FOvercast.6 mph83%29.80 "Hg9 mi
6:00 AM41 °FPassing clouds.7 mph84%29.80 "Hg9 mi
5:00 AM41 °FPassing clouds.5 mph86%29.80 "Hg9 mi
4:00 AM42 °FClear.7 mph83%29.79 "Hg9 mi
3:00 AM43 °FPassing clouds.9 mph84%29.79 "Hg9 mi
Weather by CustomWeather, © 2014

See weather overviewHow to use our weather pages